Station PBPA2 - Point Bishop, AK Image indicating link to RSS feed of recent meteorological observations for station PBPA2


Conditions at PBPA2 as of
(11:10 pm AKDT on 04/20/2024)
0710 GMT on 04/21/2024:
     

Click on the graph icon in the table below to see a time series plot of the last five days of that observation.

5-day plot - Wind Direction Wind Direction (WDIR):NNE ( 30 deg true )
5-day plot - Wind Speed Wind Speed (WSPD): 6.0 kts
5-day plot - Wind Gust Wind Gust (GST): 12.0 kts
5-day plot - Atmospheric Pressure Atmospheric Pressure (PRES):29.78 in
5-day plot - Air Temperature Air Temperature (ATMP): 45.9 °F
5-day plot - Dew Point Dew Point (DEWP): 31.3 °F
5-day plot - Wind Chill Wind Chill (CHILL): 42.3 °F
5-day plot - Wind Speed at 10 Meters Wind Speed at 10 meters (WSPD10M): 5.8 kts
5-day plot - Wind Speed at 20 Meters Wind Speed at 20 meters (WSPD20M): 7.8 kts
5-day plot -  Wind Speed, Wind Gust and Atmospheric Pressure Combined plot of Wind Speed, Gust, and Air Pressure
Previous observations
TIME
(AKDT)
5-day plot - Wind Direction
WDIR
 
5-day plot - Wind Speed
WSPD
kts
5-day plot - Wind Gust
GST
kts
5-day plot - Wave Height
WVHT
ft
5-day plot - Dominant Wave Period
DPD
sec
5-day plot - Average Wave Period
APD
sec
5-day plot - Mean Wave Direction
MWD
 
5-day plot - Atmospheric Pressure
PRES
in
5-day plot - Pressure Tendency
PTDY
in
5-day plot - Air Temperature
ATMP
°F
5-day plot - Water Temperature
WTMP
°F
5-day plot - Dew Point
DEWP
°F
5-day plot - Salinity
SAL
psu
5-day plot - Visibility
VIS
nmi
5-day plot - Tide (above MLLW)
TIDE
ft
2024-04-20 10:10 pmNNE 8.9 13.0----29.78- 45.9- 32.9---
2024-04-20 09:10 pm N 8.9 13.0----29.77- 47.1- 33.3---
2024-04-20 08:10 pmNNE 7.0 11.1----29.77- 49.3- 30.6---
2024-04-20 07:10 pm NE 4.1 11.1----29.77- 48.6- 32.0---
2024-04-20 06:10 pmENE 4.1 11.1----29.78- 49.8- 32.0---
2024-04-20 05:10 pmENE 2.9 7.0----29.79- 51.3- 33.4---
2024-04-20 03:10 pm NE 4.1 8.9----29.83- 50.2- 33.1---
2024-04-20 02:10 pm E 7.0 12.0----29.86- 49.6- 32.5---
2024-04-20 01:10 pm NE 7.0 12.0----29.87- 50.7- 30.2---
2024-04-20 12:10 pm- 0.0 6.0----29.89- 53.6- 31.3---
2024-04-20 11:10 amNNE 8.9 14.0----29.92- 52.3- 29.5---
2024-04-20 10:10 am- 0.0 2.9----29.93- 52.2- 36.3---
2024-04-20 09:10 am S 1.0 2.9----29.94- 48.4- 35.2---
2024-04-20 08:10 am SW 1.0 2.9----29.96- 46.4- 32.2---
2024-04-20 07:10 am- 0.0 1.9----29.98- 43.3- 31.3---
2024-04-20 06:10 am- 0.0 1.9----29.99- 38.8- 29.7---
2024-04-20 05:10 am- 0.0 1.9----30.01- 39.9- 31.3---
2024-04-20 04:10 am NW 1.0 1.9----30.03- 40.8- 29.7---
2024-04-20 03:10 am- 0.0 0.0----30.04- 39.6- 29.5---
2024-04-20 02:10 am- 0.0 0.0----30.06- 41.0- 32.4---
2024-04-20 01:10 am- 0.0 1.9----30.07- 42.1- 29.8---
2024-04-20 12:10 am- 0.0 0.0----30.08- 43.3- 28.4---
2024-04-19 11:10 pm- 0.0 2.9----30.09- 44.2- 31.6---